ATLAS 5 CENTAUR DEB, 43954

Orbit data source: Space-Track

ATLAS 5 CENTAUR DEB, 43954 is space debris in HEO originally from a launch on Wed, 17 Sep 2014 UTC launched from the Air Force Eastern Test Range (AFETR). Debris objects in space refer to the collection of defunct objects orbiting the Earth. Examples of debris include non-operational satellites, rocket bodies, and fragments generated from explosions, collisions, or faulty payload assembly.

Loading next visibility...
Identifier
43954, 2014-055H
Orbit
HEO
Country
Flag of USUS
Related business
Flag of USUnited Launch Alliance/Lockheed Martin (US)
Manufacturer
Unknown
Mission
Spacecraft
Bus & Motor
Unknown
Mass
Unknown
Launch date (UTC)
2014-09-17 (11 years ago)
Launch vehicle
Unknown
Launch site
Air Force Eastern Test Range (AFETR)
Object type
Payload
Rocket body
Debris
Shape & HBR
Unknown shape, 1.1 m
Radar Cross Section
Small (<0.1 m²)

Expand to show TLE details & history
Last TLE update: 1 day ago

TLE from 1 day ago
0 ATLAS 5 CENTAUR DEB
1 43954U 14055H   25286.17906894 -.00000050  00000-0  00000-0 0  9993
2 43954  20.1708 151.3013 4888221 153.7181 242.7254  1.89367861 49163
Epoch: 2025-10-13T04:17Z
TLE epoch observation values (Epoch: 2025-10-13T04:17:51.556Z)
Latitude
-0.00001°
Longitude
64.89074°
Altitude
31,006.06 km
Speed
2.623 km/s
True Right ascension
10h 05m 21s
True Declination
0° 00' 00"
Sunlit
Object was in daylight at epoch
Visualization orbit readout
Latitude
Unknown
Longitude
Unknown
Altitude
Unknown
Speed
Unknown
Apparent Right ascension
Unknown
Apparent Declination
Unknown
Sunlit
N/A
Visualization observer readout
Local Sidereal Time
02:11:21
Azimuth
Unknown
Elevation
Unknown
Doppler factor
Unknown
Orbital elements
Apogee altitude
34,712.084 km
Perigee altitude
7,729.937 km
Semi-major axis
27,599.148 km
Eccentricity
0.48882
Inclination
20.1708°
RAAN
151.3013°
Arg. of periapsis
153.7181°
True anomaly
206.29027°
Mean anomaly
242.7254°
Eccentric anomaly
223.4604°
Mean motion
0.47337 °/min
Orbital period
760.51 mins
BSTAR
0
Loading maneuver chart data...
Computing Atmospheric mass density...

Documentation

Showing up to 5 results
|